Tracking 35275 objects as of 8-Sep-2026
HD Live streaming from Space Station
objects crossing your sky now

STARLINK-34150

Track STARLINK-34150 now!
10-day predictions
STARLINK-34150 is classified as:


NORAD ID: 63998
Int'l Code: 2025-101E
Launch date: May 14, 2025
Source: United States (US)
Launch site: AIR FORCE EASTERN TEST RANGE (AFETR)
Your satellite tracking list
Your tracking list is empty




NASA's NSSDC Master Catalog

Two Line Element Set (TLE):
1 63998U 25101E   26251.45087357  .00019755  00000-0  72495-3 0  9996
2 63998  42.9991  46.0451 0001128 265.2149  94.8574 15.27604046 75006
Source of the keplerian elements: AFSPC